#timestamp,LO_Frequency,Hit,StdDev 
1587643215.2,286047000.0,N
1587643235.1,286047000.4,N
1587643236.0,286047000.4,N
1587643255.8,286047000.8,N
1587643275.6,286046998.5,N
1587643295.5,286046996.6,Y
1587643315.3,286046997.7,P
1587643335.2,286046997.2,P
1587643355.0,286046997.7,N
1587643355.9,286046997.7,N
1587643375.8,286046995.1,Y
1587643395.6,286046999.5,P
1587643415.4,286046999.5,N
1587643435.3,286046996.6,P
1587643455.1,286046998.0,N
1587643475.8,286046996.9,N
1587643495.7,286046999.5,N
1587643515.5,286046997.0,N
1587643535.4,286046997.8,N
1587643555.2,286046996.6,Y
1587643575.0,286046996.8,P
1587643575.9,286046996.8,P
1587643595.8,286046997.7,P
1587643615.6,286046994.9,Y
1587643635.5,286046998.3,P
1587643655.3,286047001.2,N
1587643675.1,286046998.9,N
1587643695.9,286047001.1,N
1587643715.7,286046996.5,N
1587643735.6,286046999.0,N
1587643755.4,286046999.3,N
1587643775.2,286046999.5,N
1587643795.1,286046996.8,N
1587643796.0,286046996.8,N
1587643815.8,286046996.6,N
1587643835.6,286046996.7,N
1587643855.5,286046997.9,N
1587643875.3,286046995.2,Y
1587643895.2,286046995.5,P
1587643915.0,286046995.2,P
1587643915.9,286046995.2,P
1587643935.8,286046995.3,Y
1587643955.6,286047000.0,P
1587643975.4,286047000.1,N
1587643995.3,286046999.7,N
1587644015.1,286047001.9,N
1587644035.8,286047001.5,N
1587644055.7,286047002.2,N
1587644075.5,286047001.4,N
1587644095.4,286047001.6,N
1587644115.2,286047004.1,N
1587644135.0,286047001.9,N
1587644135.9,286047001.9,N
1587644155.8,286047001.4,N
1587644175.6,286047001.5,N
1587644195.5,286047001.6,N
1587644215.3,286047001.5,N
1587644235.1,286047001.6,N
1587644255.9,286047002.4,N
1587644275.7,286047002.0,N
1587644295.5,286047002.1,N
1587644315.4,286047005.5,Y
1587644335.2,286047003.2,P
1587644355.1,286047004.4,P
1587644356.0,286047004.4,P
1587644375.8,286047004.1,Y
1587644395.6,286046996.5,P
1587644415.5,286046997.7,N
1587644435.3,286046999.2,N
1587644455.2,286047001.1,N
1587644475.9,286046999.8,N
1587644495.7,286047000.9,N
1587644515.6,286046998.5,N
1587644535.4,286047001.0,N
1587644555.3,286047000.3,N
1587644575.1,286046998.2,N
1587644576.0,286046998.2,N
1587644595.8,286046999.0,N
1587644615.7,286046999.1,N
1587644635.5,286046996.9,N
1587644655.3,286046998.4,N
1587644675.2,286047000.9,N
1587644695.0,286046999.9,N
1587644695.9,286046999.9,N
1587644715.8,286047001.1,N
1587644735.6,286046998.9,N
1587644755.4,286046997.0,N
1587644775.3,286046997.7,N
1587644795.1,286046997.8,N
1587644815.8,286046997.3,N
1587644835.7,286046995.1,Y
1587644855.5,286046997.0,P
1587644875.4,286046999.6,N
1587644895.2,286046999.3,N
1587644915.0,286046998.1,N
1587644915.9,286046998.1,N
1587644965.8,286046997.0,E
1587644975.7,286047000.6,N
1587644995.6,286047004.4,P
1587645015.4,286046999.7,N
1587645035.2,286047002.3,N
1587645055.1,286047002.1,N
1587645056.0,286047002.1,N
1587645075.8,286047000.0,N
1587645095.7,286047011.9,Y
1587645115.5,286046997.1,P
1587645135.3,286046997.1,N
1587645155.2,286046998.4,N
1587645175.0,286046998.4,N
1587645175.9,286046998.4,N
1587645195.8,286047000.0,N
1587645215.6,286047002.8,N
1587645235.4,286047002.5,N
1587645255.3,286047000.7,N
1587645275.1,286047001.8,N
1587645295.9,286047004.3,N
1587645315.7,286047003.2,N
1587645335.5,286047003.1,N
1587645355.4,286047005.5,N
1587645375.2,286047005.8,N
1587645395.1,286047003.5,N
1587645396.0,286047003.5,N
1587645415.8,286047004.5,N
1587645435.6,286047005.2,N
1587645455.5,286047003.8,N
1587645475.3,286047001.5,N
1587645495.2,286047002.9,N
1587645515.9,286047005.5,N
1587645535.7,286047002.9,N
1587645555.6,286047005.0,N
1587645575.4,286047005.1,N
1587645595.2,286047005.9,N
1587645615.1,286047001.4,N
1587645616.0,286047001.4,N
1587645635.8,286047000.2,N
1587645655.7,286047000.7,N
1587645675.5,286046998.7,N
1587645695.3,286047000.7,N
1587645715.2,286047002.4,N
1587645735.0,286046999.9,N
1587645735.9,286046999.9,N
1587645755.8,286047001.1,N
1587645775.6,286046998.4,N
1587645795.4,286047001.1,N
1587645815.3,286047000.5,N
1587645835.1,286047000.7,N
1587645855.9,286047000.7,N
1587645875.7,286047002.8,N
1587645895.5,286047003.1,N
1587645915.4,286047005.7,N
1587645935.2,286047003.9,N
1587645955.0,286047001.6,N
1587645955.9,286047001.6,N
1587645975.8,286047004.3,N
1587645995.6,286047004.3,N
1587646015.5,286047003.9,N
1587646035.3,286047002.3,N
1587646055.1,286047000.0,N
1587646075.9,286047000.4,N
1587646095.7,286047002.7,N
1587646115.6,286047002.7,N
1587646135.4,286046999.7,N
1587646155.2,286047000.3,N
1587646175.1,286047002.0,N
1587646176.0,286047002.0,N
1587646195.8,286047002.8,N
1587646215.6,286047004.2,N
1587646235.5,286047004.4,N
1587646255.3,286047004.3,N
1587646275.2,286047001.6,N
1587646295.9,286047003.3,N
1587646315.7,286047003.6,N
1587646335.6,286047005.6,Y
1587646355.4,286047002.6,P
1587646375.3,286046998.5,P
1587646395.1,286047000.2,N
1587646396.0,286047000.2,N
1587646415.8,286047002.0,N
1587646435.7,286047000.0,N
1587646455.5,286047001.9,N
1587646475.3,286047001.5,N
1587646495.2,286047003.3,N
1587646515.0,286047005.6,Y
1587646515.9,286047005.6,P
1587646535.8,286047002.6,N
1587646555.6,286047002.8,N
1587646575.4,286047001.9,N
1587646595.3,286047004.4,N
1587646615.1,286047003.6,N
1587646635.9,286047003.7,N
1587646655.7,286047001.5,N
1587646675.5,286047002.1,N
1587646695.4,286047001.3,N
1587646715.2,286047002.5,N
1587646735.0,286047001.6,N
1587646735.9,286047001.6,N
1587646755.8,286047003.1,N
1587646775.6,286047003.6,N
1587646795.5,286047001.7,N
